Chattanooga, TN

1:00 AM EDT on September 25, 2017 (GMT -0400)
Lovell

Weather History for KCHA - April, 2013

Change the Weather History Date:

Monday, April 15, 2013

  Actual Average Record
Temperature  
Mean Temperature 67 °F 60 °F  
Max Temperature 78 °F 73 °F 87 °F (1936)
Min Temperature 56 °F 48 °F 27 °F (1943)
Degree Days  
Heating Degree Days 0 6  
Month to date heating degree days 95 112  
Since 1 July heating degree days 2962 3138  
Cooling Degree Days 2 1  
Month to date cooling degree days 16 15  
Year to date cooling degree days 21 22  
Growing Degree Days 16 (Base 50)    
Moisture  
Dew Point 61 °F    
Average Humidity 84    
Maximum Humidity 100    
Minimum Humidity 67    
Precipitation  
Precipitation 0.00 in 0.12 in 3.13 in (2011)
Month to date precipitation 2.63 2.05  
Year to date precipitation 21.02 16.78  
Snow  
Snow 0.00 in 0.00 in - ()
Month to date snowfall 0.0 0.1  
Since 1 July snowfall 0.3 3.9  
Snow Depth 0.00 in    
Sea Level Pressure  
Sea Level Pressure 30.00 in    
Wind  
Wind Speed 4 mph (South)    
Max Wind Speed 13 mph    
Max Gust Speed 16 mph    
Visibility 9 miles    
Events      
T = Trace of Precipitation, MM = Missing Value Source: NWS Daily Summary

Daily Weather History Graph

Daily Weather History Graph

Search for Another Location

Airport or City:

Trip Planner

Search our weather history database for the weather conditions in past years. The results will help you decide how hot, cold, wet, or windy it might be!

Date:

Astronomy

Apr. 15, 2013 Rise Set
Actual Time 7:08 AM EDT 8:13 PM EDT
Civil Twilight 6:42 AM EDT 8:39 PM EDT
Nautical Twilight 6:11 AM EDT 9:10 PM EDT
Astronomical Twilight 5:39 AM EDT 9:42 PM EDT
Moon 10:40 AM EDT (4/15) 12:18 AM EDT (4/15)
Length of Visible Light 13h 57m
Length of Day
13h 05m
Waxing Crescent, 24% of the Moon is Illuminated
Apr 15
Waxing Crescent
Apr 18
First Quarter
Apr 25
Full
May 2
Last Quarter
May 9
New

Hourly Weather History & Observations

Time (EDT) Temp. Dew Point Humidity Pressure Visibility Wind Dir Wind Speed Gust Speed Precip Events Conditions
12:05 AM 57.2 °F 57.2 °F 100% 29.95 in 10.0 mi Variable 4.6 mph - N/A   Overcast
12:53 AM 57.0 °F 57.0 °F 100% 29.95 in 10.0 mi Calm Calm - N/A   Overcast
1:53 AM 55.9 °F 55.9 °F 100% 29.94 in 10.0 mi NE 4.6 mph - N/A   Overcast
2:53 AM 57.0 °F 57.0 °F 100% 29.93 in 10.0 mi North 3.5 mph - N/A   Overcast
3:53 AM 55.9 °F 55.9 °F 100% 29.94 in 10.0 mi Calm Calm - N/A   Overcast
4:53 AM 57.0 °F 57.0 °F 100% 29.94 in 10.0 mi Calm Calm - N/A   Overcast
5:39 AM 57.2 °F 57.2 °F 100% 29.96 in 6.0 mi Calm Calm - N/A   Mostly Cloudy
5:53 AM 57.0 °F 57.0 °F 100% 29.95 in 6.0 mi Calm Calm - N/A   Mostly Cloudy
6:53 AM 57.0 °F 57.0 °F 100% 29.98 in 5.0 mi Calm Calm - N/A   Mostly Cloudy
7:53 AM 57.2 °F 57.2 °F 100% 30.01 in 6.0 mi Calm Calm - N/A   Mostly Cloudy
8:53 AM 59.0 °F 57.9 °F 96% 30.02 in 6.0 mi Calm Calm - N/A   Mostly Cloudy
9:53 AM 61.0 °F 59.0 °F 93% 30.04 in 6.0 mi SSW 4.6 mph - N/A   Mostly Cloudy
10:50 AM 62.6 °F 59.0 °F 88% 30.05 in 10.0 mi SSW 5.8 mph - N/A   Mostly Cloudy
10:53 AM 63.0 °F 59.0 °F 87% 30.04 in 10.0 mi Variable 5.8 mph - N/A   Mostly Cloudy
11:53 AM 66.0 °F 60.1 °F 81% 30.05 in 10.0 mi South 4.6 mph - N/A   Mostly Cloudy
12:53 PM 69.1 °F 62.1 °F 78% 30.04 in 10.0 mi Calm Calm - N/A   Mostly Cloudy
1:47 PM 71.6 °F 64.4 °F 78% 30.03 in 10.0 mi Variable 3.5 mph - N/A   Mostly Cloudy
1:53 PM 73.0 °F 64.0 °F 73% 30.02 in 10.0 mi SSW 9.2 mph - N/A   Mostly Cloudy
2:53 PM 73.0 °F 66.0 °F 79% 30.01 in 10.0 mi South 5.8 mph - N/A   Scattered Clouds
3:53 PM 75.9 °F 66.0 °F 71% 29.99 in 10.0 mi SW 6.9 mph - N/A   Partly Cloudy
4:53 PM 77.0 °F 66.9 °F 71% 29.97 in 10.0 mi Variable 4.6 mph - N/A   Partly Cloudy
5:53 PM 78.1 °F 68.0 °F 71% 29.97 in 10.0 mi South 9.2 mph - N/A   Partly Cloudy
6:53 PM 78.1 °F 66.9 °F 68% 29.99 in 10.0 mi South 8.1 mph - N/A   Partly Cloudy
7:53 PM 75.9 °F 66.0 °F 71% 30.01 in 10.0 mi SSE 4.6 mph - N/A   Partly Cloudy
8:53 PM 73.0 °F 64.9 °F 76% 30.03 in 10.0 mi SE 4.6 mph - N/A   Partly Cloudy
9:53 PM 71.1 °F 64.0 °F 78% 30.06 in 10.0 mi SSE 5.8 mph - N/A   Clear
10:53 PM 70.0 °F 63.0 °F 78% 30.09 in 10.0 mi South 6.9 mph - N/A   Partly Cloudy
11:53 PM 68.0 °F 64.0 °F 87% 30.09 in 10.0 mi SSE 4.6 mph - N/A   Clear